This is the latest recevied weather packets stored in our database for station/object WV8BRW. If no packets are shown the sender has not sent any weather packets the latest 10 day(s).
| Time | Temp. | Humidity | Pressure | Rain* | Wind** | Luminosity | Snow |
|---|---|---|---|---|---|---|---|
| 1777574646 | 12.78° C | 67% | 1014.3 hPa | 0 mm | - | 504 W/m² | - |
| 1777574344 | 12.78° C | 65% | 1014.5 hPa | 0 mm | - | 987 W/m² | - |
| 1777574038 | 12.22° C | 68% | 1014.2 hPa | 0 mm | - | 256 W/m² | - |
| 1777573733 | 12.22° C | 68% | 1014.3 hPa | 0 mm | - | 298 W/m² | - |
| 1777573430 | 12.22° C | 70% | 1014.4 hPa | 0 mm | - | 271 W/m² | - |
| 1777573126 | 11.67° C | 69% | 1014.4 hPa | 0 mm | - | 311 W/m² | - |
| 1777572822 | 11.67° C | 70% | 1014.5 hPa | 0 mm | - | 365 W/m² | - |
| 1777572518 | 11.11° C | 72% | 1014.9 hPa | 0 mm | - | 386 W/m² | - |
| 1777572214 | 11.11° C | 71% | 1014.7 hPa | 0 mm | - | 175 W/m² | - |
| 1777571909 | 11.67° C | 70% | 1014.5 hPa | 0 mm | - | 188 W/m² | - |
| 1777571604 | 11.67° C | 69% | 1014.5 hPa | 0 mm | - | 282 W/m² | - |
| 1777571302 | 11.11° C | 71% | 1014.5 hPa | 0 mm | - | 469 W/m² | - |
| 1777570998 | 11.11° C | 71% | 1014.6 hPa | 0 mm | - | 254 W/m² | - |
| 1777570694 | 11.11° C | 72% | 1014.5 hPa | 0 mm | - | 234 W/m² | - |
| 1777570391 | 11.67° C | 68% | 1014.4 hPa | 0 mm | - | 400 W/m² | - |
| 1777570086 | 11.67° C | 68% | 1014.6 hPa | 0 mm | - | 329 W/m² | - |
| 1777569777 | 12.22° C | 67% | 1014.5 hPa | 0 mm | - | 426 W/m² | - |
| 1777569472 | 12.22° C | 71% | 1014.8 hPa | 0 mm | - | 339 W/m² | - |
| 1777569170 | 11.67° C | 71% | 1014.8 hPa | 0 mm | - | 668 W/m² | - |
| 1777568866 | 10.56° C | 71% | 1014.9 hPa | 0 mm | - | 283 W/m² | - |
| 1777568563 | 11.11° C | 72% | 1014.7 hPa | 0 mm | - | 299 W/m² | - |
| 1777568260 | 11.11° C | 71% | 1015 hPa | 0 mm | - | 320 W/m² | - |
| 1777567957 | 11.11° C | 70% | 1014.9 hPa | 0 mm | - | 281 W/m² | - |
| 1777567652 | 11.11° C | 73% | 1014.8 hPa | 0 mm | - | 264 W/m² | - |
| 1777567350 | 10.56° C | 71% | 1014.8 hPa | 0 mm | - | 312 W/m² | - |
* Rain latest hour (hover to see other rain measurements)
** Current wind speed in m/s (hover to see current wind gust speed)